Theta_e
304 306 306 305 303 301 300 300 300 301 301 301 302 302 303 306 311 310 310 306 304 305 304 308 311 311 311 313 318 324 325 325 325 325 325 325 325 324 324 325 324 324 324 323 322
302 303 305 306 306 305 303 301 300 301 301 301 302 303 303 310 312 310 311 307 303 305 307 307 310 310 310 312 315 321 322 323 325 325 325 325 324 324 323 324 324 323 322 322 321
308 306 305 305 305 306 306 304 301 301 301 301 302 304 304 313 313 311 308 309 310 310 311 310 309 311 310 312 314 317 319 321 324 324 324 324 322 322 322 323 324 321 320 320 320
309 308 308 306 305 306 307 307 302 301 301 301 302 304 304 311 312 311 312 312 311 310 306 308 308 311 312 312 312 314 315 317 320 321 320 323 318 319 319 320 319 318 318 318 319
307 308 308 309 305 305 306 305 301 301 301 301 303 304 304 310 312 311 311 311 311 311 312 311 309 310 312 311 311 313 313 313 313 313 315 315 318 318 318 316 316 317 317 317 318
308 308 308 309 306 305 304 302 301 301 301 301 305 304 305 309 311 311 311 310 310 310 311 312 311 311 311 311 312 311 311 312 312 313 312 314 316 315 317 315 315 315 316 317 317
307 308 309 309 306 305 303 302 302 301 301 301 306 304 304 305 311 311 310 309 309 309 310 311 311 310 310 311 310 310 311 311 312 312 313 313 314 315 313 313 315 315 315 314 314
305 308 309 309 305 304 304 305 306 302 301 303 307 307 305 309 309 310 310 309 309 309 310 310 310 309 310 309 310 311 310 311 311 311 312 313 316 314 312 312 313 313 313 313 313
304 306 309 308 306 308 310 310 312 311 305 304 308 310 313 313 311 310 310 309 309 309 309 310 309 309 309 311 311 310 310 311 312 312 313 312 313 313 312 312 312 312 313 313 313
305 307 310 306 306 311 310 311 312 311 311 312 311 312 313 314 312 311 310 310 309 309 309 309 309 311 310 311 312 312 312 312 312 312 313 313 313 313 312 312 312 312 312 312 313
309 309 310 307 310 311 311 311 310 309 310 310 310 312 311 312 311 311 310 309 309 309 310 308 311 311 311 311 311 311 311 311 311 312 312 312 312 312 312 312 312 312 311 312 312
309 310 310 308 311 312 311 310 310 310 311 311 310 310 309 309 311 310 310 310 309 310 308 309 310 310 310 310 310 310 311 311 313 312 312 312 312 312 312 312 312 312 312 311 311
310 310 310 308 311 311 311 311 311 311 310 310 310 310 309 309 311 311 310 309 310 309 308 309 310 309 310 310 311 311 312 313 311 312 311 312 310 311 311 310 311 311 311 310 310
308 311 308 309 311 311 311 312 311 311 314 313 312 311 310 310 311 310 310 310 309 310 308 309 308 309 310 310 313 312 313 312 311 311 310 311 308 311 311 311 311 311 313 313 312
306 310 306 311 311 312 311 310 310 312 315 314 311 310 310 310 310 311 310 310 311 310 309 310 309 309 310 311 312 311 312 312 311 311 311 310 310 311 311 311 312 312 312 314 314
305 305 308 310 312 311 310 310 312 317 315 311 309 309 310 309 310 310 310 309 308 310 309 310 308 309 310 312 311 311 311 309 309 310 310 310 310 310 311 311 312 311 311 312 314
309 309 310 311 311 310 309 312 316 317 310 310 309 310 309 312 312 312 311 310 311 311 311 310 309 310 311 312 311 310 311 311 310 310 309 310 310 310 311 311 312 311 311 312 314
312 312 312 310 312 312 311 314 318 313 309 310 310 310 310 312 312 312 312 312 312 309 310 312 311 311 312 311 311 311 311 312 311 309 309 309 310 310 310 310 310 311 312 313 312
312 314 312 311 310 312 311 316 315 312 311 311 311 310 311 311 311 311 312 313 313 312 313 312 310 310 311 311 311 311 311 310 311 310 311 310 310 310 311 311 311 312 313 311 311
309 311 312 311 311 312 313 314 313 312 311 310 310 310 311 310 310 311 311 312 313 312 311 312 314 311 311 310 309 311 310 311 312 312 311 310 310 310 311 310 311 313 311 311 311
311 313 312 312 311 311 315 313 313 312 310 311 311 310 310 310 311 311 311 311 312 312 312 311 313 312 311 311 311 311 311 312 312 312 312 311 311 311 311 311 312 311 311 310 312
305 312 312 312 312 305 312 309 308 310 310 311 310 311 310 311 311 311 310 310 311 311 313 311 313 313 311 310 310 310 311 312 314 313 313 314 313 311 311 311 311 311 311 311 312
303 308 310 308 313 309 306 307 307 309 310 311 310 310 309 310 311 311 311 309 309 311 311 312 314 314 311 309 309 311 311 311 311 311 312 314 313 311 311 312 312 312 312 312 312
301 307 303 306 304 305 305 305 309 308 308 307 308 308 308 309 309 309 310 309 308 308 308 310 312 312 311 310 310 311 311 311 312 315 313 313 313 312 312 313 313 312 312 313 312
300 303 302 302 303 303 304 305 307 308 307 306 307 307 307 308 308 308 308 308 307 307 308 310 311 311 311 311 311 311 312 312 312 313 314 312 312 312 313 314 313 313 312 312 312
299 300 300 302 301 303 304 305 306 306 305 305 306 307 306 307 307 307 307 307 307 308 309 310 311 311 311 311 312 312 311 311 311 311 312 313 313 313 312 312 312 312 312 312 311
295 297 302 300 301 303 302 304 304 303 303 304 306 305 304 304 304 305 305 305 306 308 309 309 311 310 310 309 310 311 311 311 311 312 312 314 314 313 313 313 312 312 311 311 310
Wind_Speed
16 16 15 15 15 14 13 12 10 8 7 7 9 11 13 12 13 10 8 7 8 10 15 11 8 7 10 9 9 6 7 11 15 13 9 7 3 6 7 13 6 4 11 15 22
17 15 15 15 15 15 14 13 11 9 8 8 10 11 11 10 8 8 5 3 4 4 6 9 8 7 6 7 8 9 9 14 8 13 9 5 3 7 6 14 14 11 11 18 23
18 18 16 15 15 15 15 14 12 10 9 9 10 11 8 8 1 6 7 3 2 3 4 5 6 6 6 5 8 7 12 8 10 10 9 11 6 4 3 11 14 16 25 24 18
18 19 19 17 15 13 14 13 12 10 9 9 10 9 6 3 2 1 6 7 7 5 3 6 5 6 4 7 5 7 7 13 13 11 7 13 10 8 12 13 18 21 25 16 15
19 18 18 18 17 14 13 11 9 9 8 8 8 7 4 3 2 3 1 4 4 4 3 5 7 5 5 4 4 6 5 5 7 9 14 13 20 18 16 13 20 18 17 21 18
21 20 18 17 17 15 11 9 6 7 7 6 8 5 3 3 6 3 2 3 4 3 2 2 2 3 3 3 5 4 5 7 7 11 8 12 21 11 8 7 14 19 17 12 10
21 20 19 17 16 14 9 6 4 4 5 4 5 5 7 7 6 5 2 2 3 1 2 2 1 2 3 3 1 2 6 7 11 12 11 10 18 14 2 2 13 12 9 6 6
23 20 17 16 13 10 7 5 4 2 3 3 4 6 5 4 9 7 5 4 3 1 5 4 4 4 3 3 2 3 3 6 2 2 7 11 12 9 9 9 6 6 9 9 9
23 20 16 13 9 6 5 5 3 1 3 3 4 4 4 3 6 5 5 4 3 3 2 6 3 2 2 2 3 2 4 4 3 4 3 5 6 1 6 8 11 10 8 8 10
22 18 13 9 5 7 2 5 6 5 4 1 4 3 1 1 2 5 5 7 6 3 2 2 2 3 2 4 4 3 3 2 5 1 6 6 7 8 15 7 9 13 15 7 8
21 16 10 4 4 6 4 1 3 2 7 6 3 5 8 3 3 6 3 2 4 1 3 1 5 7 6 10 4 2 3 4 3 1 9 10 13 12 16 14 13 12 15 13 9
19 14 7 2 5 5 7 4 7 6 6 5 9 15 13 10 4 9 9 4 4 4 2 3 7 5 4 3 6 6 5 5 5 5 7 13 17 15 14 10 10 7 7 15 17
18 11 4 5 4 6 7 7 9 8 3 5 3 2 3 9 5 5 9 6 4 3 5 6 1 4 3 4 6 5 6 4 4 5 7 9 13 1 4 7 3 5 5 7 9
16 9 4 6 5 3 2 9 11 5 3 0 1 2 5 4 4 4 11 6 3 4 4 5 1 6 3 5 7 7 8 4 4 5 7 2 6 6 3 5 6 10 8 8 8
14 9 4 6 3 1 7 12 5 1 2 2 2 2 2 5 4 1 9 9 10 7 4 0 5 7 7 4 6 1 5 2 4 9 5 6 5 1 6 5 7 8 5 10 8
14 10 7 4 2 6 10 5 1 2 2 1 2 3 5 2 3 5 4 6 1 6 5 12 2 4 4 4 3 5 3 0 1 2 5 2 4 4 6 8 4 9 11 13 11
11 10 6 6 6 9 6 2 1 3 3 1 2 4 5 3 2 3 3 4 7 5 9 5 5 1 4 5 3 4 0 4 3 4 3 2 7 9 7 11 10 13 18 13 14
5 7 6 6 7 9 2 2 3 0 1 2 4 10 5 1 2 3 3 3 3 2 6 6 8 7 4 5 5 4 3 3 5 4 6 5 8 2 4 6 12 15 12 10 16
8 7 6 7 9 8 0 2 2 2 3 4 8 4 2 1 5 4 3 2 1 5 2 3 6 1 3 1 2 4 6 2 5 2 6 6 7 9 9 7 4 3 3 13 19
8 7 4 7 11 5 1 2 2 2 3 2 3 3 4 2 7 4 3 2 2 4 13 6 5 1 3 2 1 5 9 3 2 4 6 6 12 9 8 10 6 7 11 16 20
6 2 3 7 9 2 1 3 4 5 5 3 3 7 8 9 7 6 4 4 5 4 5 3 4 2 4 7 14 6 6 2 2 3 4 6 5 3 5 7 11 12 13 19 22
6 1 4 7 2 1 1 2 5 6 4 5 4 7 7 3 5 6 8 6 7 8 6 9 4 10 11 3 4 5 10 11 7 6 5 4 10 4 9 5 6 17 26 24 21
13 4 4 6 1 2 4 4 4 3 3 2 2 2 2 2 4 5 6 1 1 7 3 4 4 3 3 2 1 5 8 10 9 4 13 10 10 4 6 15 26 25 24 22 20
8 4 4 7 5 2 4 4 4 3 1 4 4 3 1 3 5 5 4 2 1 2 5 2 5 9 10 9 1 5 6 10 14 10 14 20 32 23 25 24 20 23 20 17 20
8 2 2 3 2 3 1 3 5 4 4 5 2 4 3 4 6 10 10 6 5 11 11 5 12 14 19 19 17 19 18 19 20 21 19 22 26 24 23 20 21 18 16 20 20
5 4 4 4 4 3 3 3 2 1 2 6 7 6 7 7 10 17 17 13 11 6 5 3 6 4 13 11 14 20 22 25 25 24 24 26 28 28 29 24 15 17 16 20 26
8 5 3 2 1 2 1 1 1 4 6 11 5 12 13 16 16 16 17 18 14 8 5 4 5 5 12 7 8 13 25 25 22 19 17 17 18 15 13 14 15 16 22 28 32
Wind_Direction
356 352 351 349 345 340 334 328 326 324 322 320 319 323 322 321 321 319 309 279 258 243 229 221 217 210 207 198 182 175 226 235 229 231 236 188 193 258 269 281 287 301 319 324 349
359 356 352 347 344 340 334 326 319 318 314 314 320 328 326 331 338 9 350 321 232 202 205 207 195 178 176 189 188 200 229 226 230 240 232 199 220 272 299 285 279 299 304 326 338
359 354 349 344 339 337 334 325 314 309 305 307 319 328 326 339 38 24 41 53 105 191 209 191 175 162 189 171 190 193 236 221 212 229 233 240 202 212 254 291 305 318 316 325 333
348 349 346 342 337 332 329 323 308 298 296 301 316 326 316 340 139 71 55 61 69 75 196 201 176 157 185 202 198 225 232 234 233 244 271 256 291 240 226 261 290 297 305 312 323
342 340 342 340 335 331 327 321 305 287 285 292 310 322 314 299 177 161 38 26 51 60 99 135 156 155 192 195 206 218 227 249 237 251 259 269 261 265 273 278 299 296 299 299 303
340 337 336 339 335 331 328 320 307 283 276 281 307 315 304 266 170 189 260 322 342 11 63 147 140 191 168 207 205 167 221 257 264 249 240 252 263 269 273 275 297 306 303 301 292
340 336 335 339 338 333 327 319 299 268 256 258 300 301 277 234 182 195 243 299 318 262 264 299 317 206 191 185 163 232 262 252 240 240 239 227 255 250 292 283 274 295 309 331 349
341 338 338 340 342 342 342 335 318 265 222 230 285 300 260 184 208 211 243 261 249 271 269 255 292 265 223 138 84 216 233 247 71 242 239 212 239 111 29 21 327 317 309 327 328
340 338 339 343 356 14 14 14 358 177 205 234 273 288 264 224 210 243 232 238 272 262 237 232 220 195 178 218 231 170 233 210 155 49 338 215 243 15 355 345 316 311 313 315 319
340 338 343 353 35 44 78 49 74 105 111 155 259 290 234 228 220 216 238 278 261 227 175 173 156 200 155 205 232 178 223 227 257 7 322 277 274 289 301 282 270 295 303 288 301
343 344 346 20 86 56 40 339 348 322 295 234 279 277 299 298 248 220 241 253 226 143 261 61 220 225 246 235 240 239 242 246 271 186 324 299 299 292 287 283 253 232 256 275 279
344 347 350 105 115 84 65 63 20 311 311 274 258 255 253 271 287 250 240 217 192 246 182 221 236 211 237 184 193 204 211 225 291 290 312 308 303 291 285 273 268 273 247 283 289
355 353 5 148 129 122 71 37 357 335 276 290 255 248 205 225 237 261 205 194 202 219 216 235 270 186 215 167 172 186 204 190 265 310 274 305 290 168 319 273 232 316 311 293 297
3 5 38 143 132 119 27 348 335 322 311 37 221 172 167 172 252 252 214 194 191 250 187 249 191 191 185 226 205 209 199 202 239 295 299 328 292 263 240 334 149 18 356 338 314
15 24 63 144 115 81 329 330 330 310 246 35 72 78 295 222 328 216 219 215 231 200 197 309 194 193 232 230 189 159 158 223 275 287 281 237 250 261 213 257 212 328 326 340 351
26 33 70 73 61 336 325 334 102 236 245 100 46 9 346 282 267 298 226 219 199 215 231 263 226 237 246 125 170 136 167 118 148 243 252 183 257 185 209 217 240 313 322 316 329
30 40 45 23 347 341 335 140 235 223 20 351 343 339 331 277 290 324 291 215 238 230 231 238 220 223 198 164 140 167 201 290 239 211 282 130 284 260 241 240 257 293 302 314 328
2 12 352 350 348 345 15 129 225 40 294 343 302 310 261 262 230 336 316 239 62 272 254 251 243 180 181 227 196 171 209 252 288 268 295 230 248 232 183 263 283 297 310 327 337
286 306 343 346 345 344 141 193 242 207 320 301 307 263 263 159 347 321 311 222 88 34 294 273 235 303 78 7 222 147 214 356 260 298 274 246 262 261 260 230 283 339 346 348 342
311 281 267 337 342 344 96 262 247 246 334 254 262 254 261 297 324 304 277 231 175 89 71 338 276 18 42 87 89 255 146 183 178 258 257 255 273 255 278 299 306 312 325 337 339
332 264 314 333 336 31 223 262 278 259 338 255 253 264 273 290 273 264 261 278 215 152 120 79 252 210 170 229 253 207 206 160 244 235 265 293 259 231 247 290 304 301 313 321 325
352 289 329 345 11 50 213 314 311 271 275 262 264 267 256 231 242 245 260 261 195 160 166 191 273 247 246 163 276 259 250 220 228 221 236 282 269 219 245 289 307 307 306 308 307
341 309 344 353 71 345 325 287 270 286 323 310 283 36 6 250 272 249 257 57 104 206 196 168 216 278 243 160 94 222 206 220 230 243 242 256 249 151 260 283 303 299 302 300 299
352 341 356 49 67 43 347 282 297 337 265 347 308 67 306 248 243 270 259 243 86 205 243 268 243 237 253 273 174 236 217 218 227 243 256 245 273 279 283 290 298 294 292 293 302
14 36 345 315 36 345 276 304 296 296 352 348 146 66 3 280 279 261 277 287 286 288 279 233 256 250 257 264 264 263 269 260 249 250 249 266 266 275 278 291 297 296 294 300 300
26 345 317 281 290 283 195 214 265 254 297 291 264 318 321 273 267 285 285 280 266 272 238 190 264 285 262 260 255 265 265 262 258 260 259 260 265 269 279 282 279 295 301 297 303
3 324 296 246 252 271 232 265 213 339 279 239 272 313 289 278 284 278 269 262 256 258 262 267 265 285 275 287 281 267 251 252 254 250 249 257 267 286 291 289 288 289 295 296 303